Location: Unspecified
(58.7730°N, 5.8460°E)
Time: 07:39:48
(UTC+02:00)

Cosmos 1674 - Visible Passes

Search period start: 26 May 2015 00:00
Search period end: 05 June 2015 00:00
Orbit: 507 x 532 km, 82.5° (Epoch: 24 May)

Date Brightness Start Highest point End Pass type
(mag) Time Alt. Az. Time Alt. Az. Time Alt. Az.
26 May 3.4 02:35:21 10° S 02:39:05 49° E 02:42:55 10° NNE visible
27 May 3.6 02:21:39 11° SSE 02:25:17 44° E 02:29:03 10° NNE visible
28 May 3.7 02:07:55 11° SSE 02:11:28 39° E 02:15:10 10° NNE visible
29 May 3.9 01:54:10 10° SSE 01:57:40 34° E 02:01:16 10° NNE visible
29 May 3.8 03:29:51 10° SW 03:33:30 35° WNW 03:37:09 10° N visible
30 May 4.1 01:40:25 10° SSE 01:43:52 31° E 01:47:22 10° NNE visible
30 May 3.7 03:15:54 10° SW 03:19:37 39° WNW 03:23:20 10° N visible
31 May 4.2 01:26:43 10° SSE 01:30:03 28° E 01:33:26 10° NNE visible
31 May 3.5 03:01:58 10° SW 03:05:44 44° WNW 03:09:31 10° N visible
01 Jun 4.4 01:13:03 10° SE 01:16:15 25° E 01:19:31 10° NNE visible
01 Jun 3.4 02:48:02 10° SSW 02:51:51 49° WNW 02:55:41 10° N visible
02 Jun 4.5 00:59:24 10° SE 01:02:26 22° E 01:05:32 10° NE visible
02 Jun 3.2 02:34:08 10° SSW 02:37:59 55° WNW 02:41:51 10° N visible
03 Jun 4.6 00:45:46 10° SE 00:48:38 20° E 00:51:34 10° NE visible
03 Jun 3.0 02:20:18 11° SSW 02:24:06 62° WNW 02:28:00 10° N visible
04 Jun 4.7 00:32:11 10° SE 00:34:50 18° E 00:37:33 10° NE visible
04 Jun 2.9 02:06:28 11° SSW 02:10:14 71° WNW 02:14:09 10° N visible
